#timestamp,LO_Frequency,Hit,StdDev 
1509206415.0,286047000.8,N
1509206415.9,286047000.8,N
1509206435.7,286046998.5,N
1509206455.6,286046999.0,N
1509206475.4,286046997.4,N
1509206495.2,286046997.6,N
1509206515.1,286046997.1,N
1509206516.0,286046997.1,N
1509206535.8,286046995.6,N
1509206555.7,286046991.4,Y
1509206575.5,286046991.7,P
1509206595.3,286046995.1,N
1509206615.2,286046992.3,P
1509206635.9,286046990.7,Y
1509206655.7,286046994.4,P
1509206675.6,286046997.3,P
1509206695.4,286046996.7,N
1509206715.3,286046995.5,Y
1509206735.1,286047000.4,P
1509206736.0,286047000.4,N
1509206755.8,286046997.0,N
1509206775.7,286046996.7,N
1509206795.5,286046999.3,N
1509206815.3,286046998.8,N
1509206835.2,286046998.8,N
1509206855.9,286046997.9,N
1509206875.7,286046999.5,N
1509206895.6,286046997.4,N
1509206915.4,286046999.0,N
1509206935.2,286046996.5,N
1509206955.1,286046998.9,N
1509206956.0,286046998.9,N
1509206975.8,286047001.1,N
1509206995.6,286047000.6,N
1509207015.5,286047000.6,N
1509207035.3,286046998.7,N
1509207055.1,286046995.2,Y
1509207075.9,286046997.0,P
1509207095.7,286047001.2,N
1509207115.5,286046995.8,N
1509207135.4,286046995.9,N
1509207155.2,286046993.5,Y
1509207175.1,286046996.3,P
1509207176.0,286046996.3,P
1509207195.8,286046994.7,P
1509207215.6,286046990.8,Y
1509207235.5,286046992.8,P
1509207255.3,286046992.3,P
1509207275.1,286046990.6,P
1509207295.9,286046991.1,Y
1509207315.7,286046994.7,P
1509207335.6,286046991.8,P
1509207355.4,286046993.8,P
1509207375.2,286046993.4,Y
1509207395.1,286047000.7,P
1509207396.0,286047000.7,N
1509207415.8,286047002.6,N
1509207435.6,286047001.6,N
1509207455.5,286047002.1,N
1509207475.3,286046999.5,N
1509207495.1,286047001.2,N
1509207515.9,286046997.9,N
1509207535.7,286046992.7,N
1509207555.5,286046992.1,N
1509207575.4,286046990.2,N
1509207595.2,286046992.7,N
1509207615.0,286046991.1,N
1509207615.9,286046991.1,N
1509207635.8,286046987.5,N
1509207655.6,286046988.9,N
1509207675.4,286046991.3,N
1509207695.3,286046987.8,N
1509207715.1,286046988.3,N
1509207735.8,286046988.7,N
1509207755.7,286046991.0,N
1509207775.5,286046991.2,N
1509207795.4,286046988.6,N
1509207815.2,286046991.6,N
1509207835.0,286046988.4,N
1509207835.9,286046988.4,N
1509207855.8,286046987.3,N
1509207875.6,286046989.4,N
1509207895.4,286046988.7,N
1509207915.3,286046988.7,N
1509207935.1,286046987.4,N
1509207936.0,286046987.4,N
1509207955.8,286046985.7,N
1509207975.7,286046991.6,N
1509207995.5,286046988.9,N
1509208015.3,286046988.6,Y
1509208035.2,286047002.8,P
1509208055.0,286047001.1,N
1509208055.9,286047001.1,N
1509208075.7,286046998.5,N
1509208095.6,286047001.2,N
1509208115.4,286046999.2,N
1509208135.2,286046996.8,N
1509208155.1,286046993.9,N
1509208156.0,286046993.9,N
1509208175.8,286046992.8,N
1509208195.7,286046990.2,N
1509208215.5,286046992.2,N
1509208235.3,286046992.3,N
1509208255.2,286046993.0,N
1509208275.9,286046992.9,N
1509208295.7,286046994.3,N
1509208315.6,286046996.3,N
1509208335.4,286046991.7,N
1509208355.2,286046989.6,N
1509208375.1,286046985.3,Y
1509208376.0,286046985.3,P
1509208395.8,286046994.0,N
1509208415.6,286046997.5,N
1509208435.5,286046997.7,N
1509208455.3,286046996.8,N
1509208475.1,286046995.9,N
1509208495.9,286046995.8,N
1509208515.7,286046995.5,N
1509208535.6,286046995.6,N
1509208555.4,286046992.1,N
1509208575.2,286046993.4,N
1509208595.1,286046995.7,N
1509208596.0,286046995.7,N
1509208615.8,286046996.4,N
1509208635.6,286046996.7,N
1509208655.5,286046994.9,N
1509208675.3,286046993.8,N
1509208695.1,286046994.1,N
1509208715.9,286046991.7,Y
1509208735.7,286047000.1,P
1509208755.5,286047002.9,N
1509208775.4,286047003.8,N
1509208795.2,286047002.1,N
1509208815.0,286047004.9,N
1509208815.9,286047004.9,N
1509208835.8,286047006.5,N
1509208855.6,286047010.9,Y
1509208875.4,286047009.5,P
1509208895.3,286047006.1,N
1509208915.1,286047005.0,N
1509208935.9,286047008.0,Y
1509208955.7,286047004.5,P
1509208975.5,286047005.1,P
1509208995.4,286047007.4,P
1509209015.2,286047006.2,Y
1509209035.0,286047003.9,P
1509209035.9,286047003.9,P
1509209055.8,286047007.1,P
1509209075.6,286047005.1,Y
1509209095.4,286046998.3,P
1509209115.3,286047000.5,N
1509209135.1,286047001.6,N
1509209155.9,286047000.6,N
1509209175.7,286047004.4,N
1509209195.5,286047004.0,N
1509209215.4,286047005.3,N
1509209235.2,286047008.5,Y
1509209255.0,286047007.1,P
1509209255.9,286047007.1,P
1509209275.8,286047005.7,N
1509209295.6,286047007.3,Y
1509209315.4,286046998.9,P
1509209335.3,286046996.9,N
1509209355.1,286046998.2,N
1509209375.8,286047003.6,N
1509209395.7,286047003.4,N
1509209415.5,286047003.3,N
1509209435.3,286047003.4,N
1509209455.2,286047004.2,N
1509209475.0,286047003.6,N
1509209475.9,286047003.6,N
1509209495.8,286047005.3,N
1509209515.6,286047005.5,N
1509209535.4,286047008.8,Y
1509209555.3,286047008.5,P
1509209575.1,286047008.2,N
1509209576.0,286047008.2,P
1509209595.8,286047012.3,Y
1509209615.7,286047005.8,P
1509209635.5,286047004.8,P
1509209655.3,286047008.8,P
1509209675.2,286047005.2,Y
1509209695.0,286047000.1,P
1509209695.9,286047000.1,N
1509209715.8,286047002.5,N
1509209735.6,286047001.2,N
1509209755.4,286046999.6,N
1509209775.3,286046996.9,N
1509209795.1,286047000.6,N
1509209796.0,286047000.6,N
1509209815.8,286046998.1,N
1509209835.7,286046997.0,N
1509209855.5,286046995.8,N
1509209875.3,286046993.4,N
1509209895.2,286046992.1,N
1509209915.9,286046993.8,N
1509209935.7,286046993.1,N
1509209955.6,286046990.5,N
1509209975.4,286046990.2,N
1509209995.2,286046996.4,N
